sat.trackr.live / text

‹ back to catalog

SHIYAN-12 02 (SY-12 02)

NORAD 50322 · 2021-129B

PAYLOAD ACTIVE UNKNOWN

§ Identity

Operator
Country
PRC
Launch date
2021-12-23
Launch site
WSC
Launch vehicle
Mass (kg)
RCS (m²)

Purposes: comms

External: N2YO · Heavens-Above · Gunter

§ Orbital elements

Epoch: 2026-09-12T20:53:23.830080Z

Period
1,433.66 min
Inclination
3.8932°
Eccentricity
0.0003998
Mean motion
1.00442293 rev/d
Perigee alt
35,722.0 km
Apogee alt
35,755.7 km
Semi-major
42,117.0 km
B*
0.0000e+0
RAAN
78.6649°
Arg perigee
95.4871°
Mean anomaly
282.2355°
Rev number
1,738

§ Raw data

SHIYAN-12 02 (SY-12 02)1 50322U 21129B   26255.87041470 -.00000166  00000+0  00000+0 0  99902 50322   3.8932  78.6649 0003998  95.4871 282.2355  1.00442293 17383

JSON: /api/v1/satellites/50322 · /tle

For live sub-satellite position, see the globe view (requires WebGL).

§ Visibility from observer

Set your observer location to see the next 7 days of passes ≥ 10°. The values pass through the URL so the page stays shareable.

No JS? Fill the form by hand. The geolocation button needs JavaScript.